MOL weather

Molde Airport
Årø, Møre og Romsdal, Norway

Public forecast

Using degrees Celsius for public forecast. Weather courtesy of forecast.io.

Current aviation weather report (METAR) for Molde Airport

Retrieved 2019/11/14 07:20 UTC (17 minutes ago):

ENML 140720Z 04006KT 9999 FEW015 BKN055 M00/M01 Q1004

Aviation forecast (TAF) for Molde Airport

Forecast is more than 12 hours old.

Retrieved 2011/03/08 08:45 UTC (9 years ago):

TAF TAF ESDF 0808 FCNO33 ENMI 080800 RRC TAF ENML 080800Z 0809/0818 21015KT 9999 FEW030 BKN050 TEMPO 0809/0818 21022G35KT BECMG 0815/0818 21022G35KT TEMPO 0815/0818 4000 RADZ BKN012